{"data":{"norad_id":56906,"epoch":"2026-05-25T00:15:11.668608Z","epoch_age_seconds":77293,"freshness":"FRESH","line1":"1 56906U 23083AG  26145.01055172 -.00001078  00000+0 -29666-4 0  9991","line2":"2 56906  43.0033 359.3878 0001284 262.3347  97.7359 15.27574126163477","mean_motion":15.27574126,"eccentricity":0.0001284,"inclination_deg":43.0033,"raan_deg":359.3878,"arg_perigee_deg":262.3347,"mean_anomaly_deg":97.7359,"bstar":-2.9666e-5,"rev_number":16347,"period_min":94.267111198766,"perigee_km":482.18570641203,"apogee_km":483.94766351832,"semimajor_km":6861.2036849652,"source":"CELESTRAK","updated_at":"2026-05-25T13:38:18.202485Z"}}